FW6550 Weather Reports


time (UTC)temp
C
wind
direction
speed
KPH
gust
KPH
rain 1hr
cm
rain 24hr
cm
rain mn
cm
humidity
%
barometer
mb
20260508110032 12 0 0.0 0.0 0.00 0.20 0.00 75 1016.7
20260508104532 12 0 0.0 1.6 0.00 0.20 0.00 74 1016.5
20260508103033 12 0 0.0 0.0 0.00 0.20 0.00 75 1016.6
20260508101536 12 0 0.0 0.0 0.00 0.20 0.00 77 1016.6
20260508100035 12 0 0.0 0.0 0.00 0.20 0.00 78 1016.4
20260508094534 13 0 0.0 0.0 0.00 0.20 0.00 79 1016.4
20260508093034 13 0 0.0 0.0 0.00 0.20 0.00 79 1016.4
20260508091531 13 0 0.0 0.0 0.00 0.20 0.00 79 1016.2
20260508090035 13 0 0.0 4.8 0.00 0.20 0.00 79 1015.4
20260508084534 13 0 0.0 0.0 0.00 0.28 0.00 78 1015.0
20260508083035 13 0 0.0 0.0 0.00 0.28 0.00 76 1015.2
20260508081535 13 0 0.0 0.0 0.00 0.28 0.00 74 1015.2
20260508080034 13 0 0.0 3.2 0.00 0.28 0.00 67 1015.2
20260508074537 13 0 0.0 3.2 0.00 0.36 0.00 61 1015.2
20260508073034 13 0 0.0 0.0 0.00 0.36 0.00 63 1015.2
20260508071533 13 0 0.0 0.0 0.00 0.36 0.00 64 1015.7
20260508070035 13 0 0.0 0.0 0.00 0.36 0.00 67 1015.9
20260508064535 14 0 0.0 0.0 0.00 0.76 0.00 68 1015.9
20260508063035 14 0 0.0 0.0 0.00 0.76 0.00 68 1016.0
20260508061533 14 0 0.0 0.0 0.00 0.76 0.00 70 1016.0
20260508060032 14 0 0.0 0.0 0.00 0.76 0.00 70 1016.1
20260508054538 14 0 0.0 3.2 0.00 0.79 0.00 68 1016.2
20260508053036 14 0 0.0 1.6 0.00 0.79 0.00 69 1016.1
20260508051536 14 0 0.0 0.0 0.00 0.79 0.00 71 1016.4
20260508050035 15 0 0.0 0.0 0.00 0.79 0.00 73 1016.5
20260508044534 15 0 0.0 0.0 0.00 0.81 0.79 75 1016.1
20260508043038 15 0 0.0 0.0 0.00 0.81 0.79 77 1016.6
20260508041533 15 0 0.0 0.0 0.00 0.81 0.79 78 1016.5
20260508040036 15 0 0.0 0.0 0.00 0.81 0.79 79 1016.7
20260508034543 15 0 0.0 0.0 0.00 1.02 0.79 80 1016.7
20260508033032 16 0 0.0 0.0 0.00 1.02 0.79 80 1016.3
20260508031533 16 0 0.0 0.0 0.00 1.02 0.79 80 1016.2
20260508030042 16 0 0.0 3.2 0.00 1.02 0.79 80 1016.2
20260508024540 16 0 0.0 1.6 0.00 1.60 0.79 80 1016.1
20260508023034 16 0 0.0 1.6 0.00 1.60 0.79 80 1016.3
20260508021534 17 0 0.0 4.8 0.00 1.60 0.79 80 1016.1
20260508020032 17 0 0.0 0.0 0.00 1.60 0.79 80 1015.9
20260508014532 17 0 0.0 0.0 0.00 1.65 0.79 80 1015.6
20260508013031 17 0 0.0 0.0 0.00 1.65 0.79 80 1015.6
20260508011541 18 0 0.0 0.0 0.00 1.65 0.79 78 1015.4
20260508010035 18 0 0.0 0.0 0.00 1.65 0.79 78 1015.4
20260508004532 19 0 0.0 3.2 0.00 1.68 0.79 75 1015.4
20260508003035 20 19 0.0 3.2 0.00 1.68 0.79 74 1015.1
20260508001536 20 0 0.0 4.8 0.00 1.68 0.79 73 1015.0
20260508000033 20 0 0.0 11.3 0.00 1.68 0.79 72 1015.0
20260507234532 21 352 0.0 6.4 0.00 1.70 0.79 71 1014.9
20260507233034 21 0 1.6 4.8 0.00 1.70 0.79 70 1014.6
20260507231547 21 0 0.0 4.8 0.00 1.70 0.79 68 1014.7
20260507230032 22 0 0.0 4.8 0.00 1.70 0.79 68 1014.5
20260507224537 22 318 0.0 4.8 0.00 1.70 0.79 65 1014.5
20260507223034 22 269 0.0 8.0 0.00 1.70 0.79 67 1014.3
20260507221534 22 332 1.6 12.9 0.00 1.70 0.79 65 1014.5
20260507220034 23 0 0.0 8.0 0.00 1.70 0.79 66 1014.2
20260507214534 22 346 0.0 12.9 0.00 1.70 0.79 68 1014.1
20260507213032 22 0 1.6 9.7 0.00 1.70 0.79 69 1014.3
20260507211531 22 342 0.0 6.4 0.00 1.70 0.79 67 1014.2
20260507210035 22 329 1.6 14.5 0.00 1.70 0.79 66 1014.0
20260507204535 22 301 1.6 12.9 0.00 1.70 0.79 70 1014.1
20260507203040 22 0 1.6 11.3 0.00 1.70 0.79 68 1014.3
20260507201538 22 0 0.0 8.0 0.00 1.70 0.79 70 1014.5
20260507200044 22 0 1.6 12.9 0.00 1.70 0.79 67 1014.8
20260507194536 22 305 3.2 12.9 0.00 1.70 0.79 72 1014.7
20260507193035 21 0 4.8 12.9 0.00 1.70 0.79 72 1014.8
20260507191534 22 0 3.2 11.3 0.00 1.70 0.79 72 1015.1
20260507190034 21 46 0.0 8.0 0.00 1.70 0.79 74 1015.0
20260507184534 21 0 0.0 6.4 0.00 1.70 0.79 77 1015.3
20260507183038 20 0 0.0 8.0 0.00 1.70 0.79 77 1015.4
20260507181534 20 0 0.0 8.0 0.00 1.70 0.79 77 1015.4
20260507180040 19 0 1.6 14.5 0.00 1.70 0.79 78 1015.8
20260507174536 19 295 3.2 12.9 0.00 1.70 0.79 77 1015.7
20260507173039 19 352 0.0 6.4 0.00 1.70 0.79 79 1015.7
20260507171553 18 319 0.0 9.7 0.00 1.70 0.79 72 1016.0
20260507170037 17 0 1.6 12.9 0.00 1.70 0.79 69 1016.1
20260507164546 17 352 3.2 9.7 0.00 1.70 0.79 67 1016.4
20260507163038 16 0 1.6 8.0 0.00 1.70 0.79 43 1016.4
20260507161542 16 323 0.0 8.0 0.00 1.70 0.79 36 1016.3
20260507160038 15 9 1.6 11.3 0.00 1.70 0.79 32 1015.9
20260507154539 15 0 0.0 6.4 0.00 1.70 0.79 28 1015.8
20260507153039 15 313 1.6 8.0 0.00 1.70 0.79 26 1015.7
20260507151539 15 0 1.6 8.0 0.00 1.70 0.79 27 1015.8
20260507150034 16 0 0.0 6.4 0.00 1.70 0.79 20 1015.7
20260507144534 15 0 0.0 9.7 0.00 1.70 0.79 18 1015.6
20260507143040 16 0 0.0 4.8 0.00 1.70 0.79 15 1015.4
20260507141537 15 0 0.0 3.2 0.00 1.70 0.79 13 1015.1
20260507140035 15 0 0.0 3.2 0.00 1.70 0.79 11 1015.2
20260507134545 15 0 0.0 8.0 0.00 1.70 0.79 13 1015.2
20260507133034 15 0 0.0 4.8 0.00 1.70 0.79 12 1014.8
20260507131538 15 0 0.0 6.4 0.00 1.70 0.79 11 1014.9
20260507130039 15 0 0.0 4.8 0.00 1.70 0.79 12 1014.7
20260507124537 15 0 0.0 4.8 0.20 1.70 0.79 13 1014.4
20260507123037 15 0 1.6 4.8 0.20 1.70 0.79 13 1014.2
20260507121533 15 0 0.0 3.2 0.20 1.70 0.79 12 1014.0
20260507120032 15 0 0.0 4.8 0.20 1.70 0.79 13 1013.8
20260507114535 15 0 1.6 4.8 0.00 1.47 0.58 13 1013.8
20260507113033 15 0 0.0 4.8 0.00 1.47 0.58 13 1013.1
20260507111537 15 29 0.0 3.2 0.00 1.47 0.58 13 1012.9